Find Starlink 34738

NORAD ID: 64951 Int'l Des: 2025-158 Owner: SPXS Country: US Constellation: starlink operational
LEOCIRCULARRETROGRADESSO

当前视图

正在加载3D地球...

About Starlink 34738

Starlink 34738 (NORAD 64951) is a starlink constellation satellite (v2 mini) launched Jul 27, 2025 by SPXS of US. It operates in LEO, CIRCULAR, RETROGRADE, SSO orbit with a mass of 575.00 kg.

即将过境

Passes for default location (London). Set your location on the main map for personalized predictions.

高度历史

Loading altitude history...

两行轨道根数

1 64951U 25158V 26263.52607968 .00010316 00000-0 32142-3 0 9994
2 64951 97.2848 121.8852 0000282 16.7094 343.4158 15.33446528 64718
Epoch: Sep 20, 2026 • Age: 16 hours

当前状态

高度 469.3 km
远地点 / 近地点 N/A
速度 7.63 km/s
星下点 28.28°N, 127.8°W
发射日期 Jul 27, 2025
运行时间 1.1 years
类型 internet

技术详情

分类 Payload
质量 575.00 kg
干质量 530.00 kg
长度 0.30 m
跨度 29.00 m
形状 ? Box + pan
制造商 SPXS
平台类型 Starlink V2MO
阶段状态 In Orbit
所有者/国家 SPXS/US

Most Searched